Hauptseite
METAR-TAF:

METAR-TAF

Flughäfen :

Turin, Italien

Bric della Croce

Breite: 45-02N, Länge: 007-44E, Höhe: 709 m

Beobachtung

Neuester Wetterbericht von vor 44 Minuten, um 18:55 UTC
Wind 3 kt aus Nord/Nordwest
Temperatur 4°C
Luftfeuchtigkeit 65%
Luftdruck 1013 hPa
Sichtweite 10 km oder mehr
keine Wolken unter 1500 m und keine Kumulonimbus oder Gewitterwolken

METAR: LIMK 221855Z 34003KT CAVOK 04/M02 Q1013 RMK SKC VAL FOSCHIA VIS MIN 9999

Zeit: 20:39 (19:39 UTC)


TAF: fehlend

Wetterbeobachtungen und Prognosen von mehr als 4000 Flughäfen (METAR und TAF Bericht).

Die verfügbaren Stationen werden durch gelbe und rote Markierungen auf der Karte dargestellt.

Führen Sie die Maus auf sie, um den Namen der Station zu sehen.

Darauf klicken, um die Beobachtung von Wetterbeobachtungen und Prognosen zu sehen.

Um die Karte zu ändern : klicken Sie auf den grünen Tasten mit einem schwarzen Kreuz Zum Vergrößern, auf den grünen Button mit einem Gedankenstrich zu verkleinern, oder auf die grünen Pfeile für benachbarte Karten.


METAR-TAF: